Weather History for Racine, WI

Change the Weather History Date:

Monday, February 18, 2013

  Actual Average Record
Temperature  
Mean Temperature 38 °F -  
Max Temperature 48 °F 32 °F 55 °F (1981)
Min Temperature 28 °F 19 °F -11 °F (2006)
Degree Days  
Heating Degree Days 27    
Moisture  
Dew Point 34 °F    
Average Humidity 82    
Maximum Humidity 100    
Minimum Humidity 61    
Precipitation  
Precipitation 0.35 in - - ()
Sea Level Pressure  
Sea Level Pressure 29.58 in    
Wind  
Wind Speed 13 mph (South)    
Max Wind Speed 21 mph    
Max Gust Speed 32 mph    
Visibility 7 miles    
Events Rain , Snow    
Averages and records for this station are not official NWS values.
T = Trace of Precipitation, MM = Missing Value Source: NWS Daily Summary

Daily Weather History Graph

Daily Weather History Graph

Search for Another Location

Airport:

Trip Planner

Search our weather history database for the weather conditions in past years. The results will help you decide how hot, cold, wet, or windy it might be!

Date:

Astronomy

Feb. 18, 2013 Rise Set
Actual Time 6:43 AM CST 5:27 PM CST
Civil Twilight 6:14 AM CST 5:56 PM CST
Nautical Twilight 5:41 AM CST 6:29 PM CST
Astronomical Twilight 5:09 AM CST 7:01 PM CST
Moon 11:08 AM CST (2/18) 1:26 AM CST (2/18)
Length of Visible Light 11h 41m
Length of Day
10h 43m
First Quarter, 58% of the Moon is Illuminated
Feb 18
First Quarter
Feb 25
Full
Mar 4
Last Quarter
Mar 11
New
Mar 19
First Quarter

Hourly Weather History & Observations

Time (CST) Temp. Windchill Dew Point Humidity Pressure Visibility Wind Dir Wind Speed Gust Speed Precip Events Conditions
12:53 AM 28.9 °F 17.3 °F 18.0 °F 64% 30.01 in 10.0 mi SSE 16.1 mph 24.2 mph N/A   Clear
1:53 AM 30.0 °F 19.5 °F 19.9 °F 66% 29.98 in 10.0 mi SSE 13.8 mph 25.3 mph N/A   Clear
2:53 AM 30.0 °F 19.5 °F 19.9 °F 66% 29.94 in 10.0 mi South 13.8 mph 21.9 mph N/A   Clear
3:53 AM 30.0 °F 17.9 °F 21.0 °F 69% 29.89 in 10.0 mi SSE 18.4 mph 25.3 mph N/A   Clear
4:53 AM 30.9 °F 18.4 °F 21.0 °F 67% 29.85 in 10.0 mi South 20.7 mph 28.8 mph N/A   Clear
5:53 AM 30.9 °F 19.8 °F 21.9 °F 69% 29.82 in 10.0 mi SSE 16.1 mph 27.6 mph N/A   Clear
6:53 AM 30.9 °F 19.4 °F 23.0 °F 72% 29.79 in 10.0 mi South 17.3 mph 25.3 mph N/A   Clear
8:53 AM 34.0 °F 25.0 °F 25.0 °F 70% 29.76 in 10.0 mi South 12.7 mph 18.4 mph N/A   Clear
9:53 AM 36.0 °F 27.5 °F 26.1 °F 67% 29.73 in 10.0 mi South 12.7 mph - N/A   Clear
10:53 AM 39.0 °F 31.4 °F 28.9 °F 67% 29.70 in 10.0 mi South 12.7 mph - N/A   Clear
11:53 AM 41.0 °F 35.2 °F 30.9 °F 67% 29.67 in 10.0 mi South 9.2 mph - N/A   Clear
12:53 PM 44.1 °F 39.0 °F 33.1 °F 65% 29.63 in 10.0 mi SSE 9.2 mph - N/A   Clear
1:53 PM 48.9 °F - 36.0 °F 61% 29.60 in 10.0 mi South 12.7 mph 20.7 mph N/A   Mostly Cloudy
2:53 PM 48.0 °F - 37.0 °F 66% 29.59 in 10.0 mi South 16.1 mph 23.0 mph N/A   Overcast
3:53 PM 46.0 °F 42.5 °F 37.9 °F 73% 29.57 in 10.0 mi SSE 6.9 mph - 0.00 in Rain Light Rain
4:40 PM 42.8 °F 38.0 °F 37.4 °F 81% 29.53 in 10.0 mi SSE 8.1 mph - 0.00 in   Overcast
4:53 PM 42.1 °F 35.2 °F 37.9 °F 85% 29.53 in 10.0 mi South 12.7 mph - 0.00 in   Overcast
5:53 PM 41.0 °F 34.3 °F 39.9 °F 96% 29.51 in 3.0 mi South 11.5 mph - 0.01 in Rain Light Rain
6:12 PM 41.0 °F 34.3 °F 39.2 °F 93% 29.48 in 3.0 mi South 11.5 mph - 0.02 in Rain Light Rain
6:53 PM 41.0 °F 33.9 °F 39.9 °F 96% 29.47 in 3.0 mi South 12.7 mph - 0.05 in Rain Light Rain
7:02 PM 41.0 °F 34.7 °F 39.2 °F 93% 29.45 in 2.5 mi South 10.4 mph - 0.01 in Rain Light Rain
7:16 PM 39.2 °F 33.6 °F 39.2 °F 100% 29.45 in 2.5 mi South 8.1 mph - 0.01 in Rain Light Rain
7:24 PM 39.2 °F 34.2 °F 39.2 °F 100% 29.44 in 3.0 mi SSE 6.9 mph - 0.01 in Rain Light Rain
7:32 PM 39.2 °F 35.0 °F 39.2 °F 100% 29.44 in 2.5 mi South 5.8 mph - 0.02 in Rain Light Rain
7:53 PM 39.9 °F 37.8 °F 39.9 °F 100% 29.45 in 1.8 mi South 3.5 mph - 0.10 in Rain Rain
8:10 PM 44.6 °F 37.8 °F 42.8 °F 93% 29.42 in 2.5 mi SSW 15.0 mph 32.2 mph 0.08 in Rain Heavy Rain
8:19 PM 44.6 °F 40.7 °F 42.8 °F 93% 29.41 in 4.0 mi South 6.9 mph 20.7 mph 0.10 in Rain Rain
8:32 PM 44.6 °F 38.8 °F 42.8 °F 93% 29.40 in 5.0 mi South 11.5 mph 19.6 mph 0.12 in Rain Light Rain
8:45 PM 44.6 °F 38.1 °F 42.8 °F 93% 29.39 in 6.0 mi SSW 13.8 mph 25.3 mph 0.15 in Rain Light Rain
8:53 PM 44.1 °F 39.0 °F 42.1 °F 93% 29.40 in 6.0 mi SSW 9.2 mph 18.4 mph 0.16 in Rain Light Rain
9:04 PM 42.8 °F 35.8 °F 41.0 °F 93% 29.39 in 5.0 mi West 13.8 mph 19.6 mph 0.02 in Rain Light Rain
9:41 PM 37.4 °F 29.8 °F 35.6 °F 93% 29.39 in 7.0 mi WNW 11.5 mph - 0.03 in Rain Light Rain
9:49 PM 37.4 °F 29.8 °F 35.6 °F 93% 29.39 in 6.0 mi WNW 11.5 mph - 0.03 in   Overcast
9:53 PM 37.0 °F 29.3 °F 36.0 °F 96% 29.41 in 5.0 mi WNW 11.5 mph - 0.03 in   Overcast
11:53 PM 34.0 °F 25.0 °F 32.0 °F 92% 29.48 in 4.0 mi West 12.7 mph 20.7 mph 0.00 in Snow Light Snow